[[{"header":{"parameterUnit":"m.s-1","parameterCategory":1,"la1":30.2991,"la2":30.254,"lo1":-89.0895,"lo2":-89.0444,"dy":0.0017,"dx":0.0017,"nx":28,"ny":28,"refTime":"2024-09-26T03:00:00:Z","depth":0,"parameterNumber":2,"parameterNumberName":"U-component_of_WINDS"},"data":[0,0,0,0,0,0,0,0,0,0,0,0,0,0,0,0,0,0,0,0,0,0,0,0,0,0,0,0,0,0,0,0,0,0,0,0,0,0,0,0,0,0,0,0,0,0,0,0,0,0,0,0,0,0,0,0,0,0,6.6555,6.6558,0,6.6788,6.6791,6.6793,6.6739,6.6735,6.6731,6.6726,6.6966,6.6976,6.6986,0,0,0,0,0,0,0,0,0,0,0,0,0,6.6065,6.6074,6.6555,6.6558,6.6561,6.6788,6.6791,6.6794,6.674,6.6735,6.6729,6.6724,6.6962,6.6975,6.6987,0,0,0,0,0,0,0,0,0,0,0,0,0,6.6286,6.6077,6.6555,6.6561,6.6564,6.6787,6.6791,6.6795,6.6741,6.6735,6.6728,6.6722,6.6958,6.6973,6.6989,6.722,0,0,6.7037,6.7044,0,0,0,0,0,0,0,0,6.6273,6.6304,6.6558,6.6561,6.6565,6.6728,6.6706,6.6937,6.6743,6.6674,6.6726,6.6719,6.6892,6.6913,6.6971,6.7231,6.7241,6.7039,6.7048,6.7055,6.7059,0,0,0,0,0,0,0,6.6258,6.6293,6.6647,6.6561,6.6566,6.6553,6.6577,6.6749,6.6818,6.668,6.6676,6.6705,6.6893,6.6956,6.6976,6.7245,6.7038,6.7052,6.7062,6.7068,6.7705,6.7712,0,0,0,0,0,0,6.6239,6.6281,6.664,6.6654,6.64,6.6567,6.6594,6.6682,6.6816,6.683,6.671,6.6701,6.6932,6.6958,6.6985,6.7263,6.7055,6.707,6.7079,6.7697,6.7706,6.7714,0,0,0,0,0,0,6.6229,6.6272,6.663,6.6467,6.6512,6.6583,6.6682,6.669,6.6754,6.6839,6.685,6.6762,6.6928,6.6962,6.7161,6.727,6.7077,6.7091,6.7689,6.77,6.771,6.7822,0,0,0,0,0,0,6.6215,6.6268,6.6357,6.6469,6.652,6.6804,6.6689,6.67,6.6781,6.6772,6.6891,6.6904,6.6926,6.7138,6.7177,6.7289,6.7103,6.7679,6.7694,6.7707,6.7809,6.7835,6.7858,0,0,0,0,0,6.6198,6.6379,6.6361,6.6405,6.6632,6.681,6.6839,6.686,6.679,6.6879,6.6934,6.69,6.7252,6.7159,6.7202,6.732,6.7672,6.769,6.7706,6.7797,6.783,6.7858,0,0,0,0,0,0,6.6278,6.6394,6.6376,6.6599,6.6695,6.68,6.6914,6.6894,6.7013,6.6999,6.702,6.7048,6.7251,6.7305,6.7199,6.755,6.7452,6.7478,6.7507,6.7539,6.7563,6.7545,6.7116,0,0,0,0,0,6.6321,6.6456,6.655,6.6738,6.6787,6.6842,6.6921,6.6928,6.7029,6.7069,6.7138,6.7238,6.737,6.7458,6.7585,6.7816,6.7841,6.7919,6.7944,6.7963,6.7986,6.8112,6.8147,6.777,6.7769,6.7769,0,0,6.6413,6.6493,6.6576,6.6756,6.6831,6.697,6.6877,6.7028,6.7131,6.7092,6.7284,6.7339,6.7451,6.7667,6.7766,6.7719,6.8096,6.7985,6.8,6.8012,6.8133,6.8168,6.82,6.7781,6.7779,6.7777,0,0,6.665,6.6724,6.6889,6.6966,6.7081,6.7117,6.7156,6.7266,6.73,6.7493,6.7467,6.759,6.7819,6.7899,6.797,6.8239,6.8212,6.8279,6.8409,6.8531,6.8561,6.8587,6.8683,6.8716,6.8301,6.8302,6.8302,0,6.6749,6.6957,6.6976,6.7129,6.7209,6.718,6.7346,6.7421,6.7572,6.7628,6.7573,6.7859,6.7933,6.8167,6.8232,6.8291,6.8337,6.8266,6.8555,6.8582,6.8607,6.8698,6.8734,6.8309,6.8308,6.8308,6.8307,0,6.7073,6.7218,6.7337,6.7483,6.7576,6.7735,6.7778,6.787,6.787,6.7911,6.8108,6.8195,6.8339,6.8395,6.8397,6.8631,6.8598,6.8549,6.8451,6.865,6.8736,6.8771,6.832,6.8317,6.8315,6.8313,0,0,6.7367,6.7521,6.7565,6.763,6.7755,6.7868,6.8026,6.8166,6.8244,6.835,6.8483,6.8677,6.8633,6.8713,6.8724,6.8832,6.9038,6.877,6.8773,6.8816,6.93,6.9335,6.9375,6.9021,6.9028,6.9033,6.929,0,6.7615,6.7893,6.7914,6.8165,6.8299,6.8273,6.8411,6.8503,6.8546,6.8665,6.8713,6.885,6.8781,6.883,6.8936,6.899,6.9135,6.8972,6.9145,6.915,6.9116,6.942,6.9458,6.9696,6.9324,6.9329,6.9334,0,6.7942,6.8057,6.832,6.8426,6.8483,6.8606,6.8736,6.8851,6.8955,6.8978,6.9069,6.9064,6.9227,6.9123,6.9347,6.9235,6.9307,6.9345,6.9355,6.9371,6.9253,6.9444,6.9773,6.9808,6.9387,6.9382,6.9379,0,6.813,6.835,6.8536,6.8593,6.8721,6.8808,6.8866,6.8963,6.9046,6.916,6.9214,6.9345,6.9417,6.952,6.9551,6.9472,6.9774,6.9673,6.9798,6.9797,6.9862,6.9857,7.0206,6.991,6.9909,6.9908,6.9908,0,6.8404,6.8567,6.8622,6.8736,6.8917,6.894,6.9119,6.9171,6.9258,6.9382,6.9368,6.9485,6.952,6.9643,6.9669,6.985,6.9883,6.9906,6.9911,6.9907,6.9904,6.9954,6.9938,6.9918,6.9916,6.9914,6.9912,0,6.8644,6.8688,6.8889,6.8993,6.9024,6.9152,6.9242,6.9352,6.9393,6.955,6.9588,6.9653,6.9797,6.9838,7.0012,7.0029,7.0241,7.0231,7.0206,7.0206,7.0329,7.0317,7.0722,7.0776,7.0444,7.0447,7.045,0,6.8816,6.8941,6.9058,6.914,6.9201,6.9334,6.9418,6.9445,6.9534,6.9661,6.9756,6.9898,7.0013,7.0245,7.0307,7.044,7.0432,7.0565,7.0452,7.0444,7.0434,7.0425,7.0438,7.0586,7.059,7.0593,7.0595,0,6.9117,6.9133,6.9254,6.9384,6.9485,6.9589,6.9688,6.9756,6.9798,6.9898,7.0045,7.0134,7.0311,7.0452,7.0587,7.0646,7.0628,7.063,7.0666,7.0663,7.0643,7.0655,7.0264,7.0621,7.0618,7.0616,7.0615,7.0614,6.9329,6.9437,6.9537,6.9673,6.9751,6.9844,6.9952,7.0006,7.0129,7.0275,7.0284,7.0443,7.0543,7.0721,7.0788,7.0913,7.0873,7.0926,7.0939,7.0951,7.0961,7.0624,7.0937,7.0937,7.0936,7.0935,7.0935,0,6.9628,6.9691,6.9816,6.9955,7.0062,7.0035,7.0144,7.0235,7.0376,7.047,7.0583,7.0752,7.0889,7.0962,7.1098,7.1184,7.1179,7.1219,7.1213,7.1227,7.0988,7.0943,7.1221,7.1221,7.1221,7.1221,7.122,7.122,6.9797,6.9979,7.0006,7.0227,7.0288,7.0444,7.0508,7.0594,7.0669,7.0858,7.0972,7.1018,7.1104,7.1246,7.1371,7.1388,7.1439,7.1483,7.1497,7.1273,7.1243,7.1215,7.1173,7.1494,7.1495,7.1724,7.1726,7.1728]},{"header":{"parameterUnit":"m.s-1","parameterCategory":1,"la1":30.2991,"la2":30.254,"lo1":-89.0895,"lo2":-89.0444,"dy":0.0017,"dx":0.0017,"nx":28,"ny":28,"refTime":"2024-09-26T03:00:00:Z","depth":0,"parameterNumber":3,"parameterNumberName":"V-component_of_WINDS"},"data":[0,0,0,0,0,0,0,0,0,0,0,0,0,0,0,0,0,0,0,0,0,0,0,0,0,0,0,0,0,0,0,0,0,0,0,0,0,0,0,0,0,0,0,0,0,0,0,0,0,0,0,0,0,0,0,0,0,0,-1.9393,-1.9394,0,-1.949,-1.9491,-1.9492,-1.9484,-1.9483,-1.9481,-1.948,-1.9581,-1.9585,-1.9589,0,0,0,0,0,0,0,0,0,0,0,0,0,-1.9202,-1.9205,-1.9393,-1.9394,-1.9395,-1.949,-1.9491,-1.9493,-1.9484,-1.9482,-1.9481,-1.9479,-1.958,-1.9584,-1.9589,0,0,0,0,0,0,0,0,0,0,0,0,0,-1.929,-1.9206,-1.9392,-1.9402,-1.9404,-1.949,-1.9491,-1.9493,-1.9485,-1.9482,-1.948,-1.9478,-1.9578,-1.9584,-1.959,-1.9672,0,0,-1.9609,-1.9611,0,0,0,0,0,0,0,0,-1.9285,-1.9297,-1.94,-1.9402,-1.9404,-1.9473,-1.9461,-1.9553,-1.9485,-1.9454,-1.948,-1.9477,-1.9547,-1.9555,-1.9579,-1.9677,-1.9681,-1.9609,-1.9613,-1.9616,-1.9617,0,0,0,0,0,0,0,-1.9279,-1.9293,-1.9431,-1.9401,-1.9404,-1.9403,-1.9413,-1.9478,-1.9512,-1.9457,-1.9456,-1.9468,-1.9548,-1.9573,-1.9581,-1.9683,-1.9609,-1.9615,-1.9618,-1.9621,-1.9855,-1.9858,0,0,0,0,0,0,-1.927,-1.9288,-1.9428,-1.9434,-1.9338,-1.9408,-1.9419,-1.9453,-1.9511,-1.9518,-1.947,-1.9467,-1.9563,-1.9574,-1.9584,-1.9685,-1.9616,-1.9621,-1.9625,-1.9853,-1.9856,-1.9858,0,0,0,0,0,0,-1.9266,-1.9283,-1.9424,-1.9361,-1.9379,-1.9413,-1.9451,-1.9456,-1.9481,-1.9521,-1.9527,-1.9489,-1.9562,-1.9576,-1.9651,-1.9689,-1.9624,-1.963,-1.985,-1.9854,-1.9857,-1.9887,0,0,0,0,0,0,-1.9261,-1.9282,-1.9313,-1.9362,-1.9382,-1.9488,-1.9454,-1.9459,-1.9491,-1.9489,-1.9541,-1.9547,-1.9561,-1.9642,-1.9657,-1.9696,-1.9634,-1.9846,-1.9851,-1.9856,-1.9883,-1.9892,-1.9899,0,0,0,0,0,-1.9254,-1.9318,-1.9314,-1.9331,-1.9422,-1.9491,-1.9502,-1.9517,-1.9494,-1.9527,-1.9552,-1.9545,-1.9682,-1.9649,-1.9666,-1.9708,-1.9844,-1.985,-1.9855,-1.988,-1.989,-1.9899,0,0,0,0,0,0,-1.9273,-1.9324,-1.9321,-1.9402,-1.9442,-1.9489,-1.953,-1.9527,-1.9575,-1.9571,-1.9587,-1.9599,-1.9674,-1.9699,-1.9661,-1.9791,-1.976,-1.977,-1.9773,-1.9783,-1.9791,-1.9784,-1.9639,0,0,0,0,0,-1.9286,-1.9337,-1.9379,-1.9447,-1.9467,-1.9495,-1.9525,-1.9533,-1.9575,-1.9592,-1.9623,-1.9665,-1.9717,-1.9751,-1.9802,-1.9887,-1.9898,-1.9924,-1.9932,-1.9938,-1.9946,-1.9994,-2.0006,-1.9877,-1.9877,-1.9877,0,0,-1.9314,-1.9349,-1.938,-1.9451,-1.9483,-1.9536,-1.9509,-1.9566,-1.9606,-1.9601,-1.9674,-1.9698,-1.9746,-1.9826,-1.9863,-1.9849,-1.9984,-1.9945,-1.995,-1.9955,-2.0001,-2.0013,-2.0024,-1.9881,-1.988,-1.988,0,0,-1.9393,-1.9424,-1.9484,-1.9516,-1.9565,-1.9583,-1.9597,-1.9645,-1.9661,-1.9734,-1.9732,-1.9779,-1.9869,-1.9903,-1.9932,-2.0025,-2.0021,-2.0041,-2.0083,-2.0129,-2.0139,-2.0148,-2.0182,-2.0194,-2.0049,-2.0049,-2.0049,0,-1.9423,-1.9502,-1.9515,-1.9573,-1.9605,-1.9602,-1.9664,-1.9695,-1.9757,-1.978,-1.9762,-1.9875,-1.9907,-1.9996,-2.0018,-2.0042,-2.006,-2.0035,-2.0136,-2.0146,-2.0154,-2.0187,-2.0199,-2.0051,-2.0051,-2.005,-2.005,0,-1.9536,-1.9591,-1.9633,-1.9693,-1.973,-1.9789,-1.9813,-1.9848,-1.9853,-1.9873,-1.9948,-1.9987,-2.0045,-2.0066,-2.0072,-2.0157,-2.0146,-2.0133,-2.0102,-2.0169,-2.0199,-2.0212,-2.0054,-2.0053,-2.0053,-2.0052,0,0,-1.9629,-1.9696,-1.9711,-1.9739,-1.9792,-1.9835,-1.9895,-1.9951,-1.9982,-2.0025,-2.0076,-2.0152,-2.014,-2.0173,-2.0183,-2.0223,-2.0295,-2.0205,-2.0206,-2.0221,-2.0392,-2.0402,-2.0416,-2.0292,-2.0295,-2.0297,-2.0388,0,-1.9714,-1.9818,-1.9833,-1.9926,-1.9977,-1.9976,-2.0028,-2.0066,-2.0087,-2.0134,-2.0158,-2.0212,-2.0191,-2.0211,-2.0251,-2.0278,-2.033,-2.0271,-2.0341,-2.0343,-2.0329,-2.0432,-2.0443,-2.0527,-2.04,-2.0402,-2.0403,0,-1.9827,-1.9873,-1.997,-2.0017,-2.0039,-2.0086,-2.0139,-2.0184,-2.0228,-2.0241,-2.0278,-2.0282,-2.0345,-2.0311,-2.0398,-2.0358,-2.0387,-2.0405,-2.0409,-2.0416,-2.0378,-2.0443,-2.0554,-2.0567,-2.0422,-2.0421,-2.042,0,-1.9886,-1.9972,-2.0042,-2.0065,-2.0121,-2.0154,-2.0179,-2.0221,-2.0255,-2.0302,-2.0324,-2.0377,-2.0407,-2.0449,-2.0468,-2.0442,-2.0554,-2.0522,-2.0567,-2.0567,-2.0591,-2.059,-2.071,-2.0609,-2.0609,-2.0609,-2.0609,0,-1.9979,-2.0039,-2.0069,-2.0112,-2.018,-2.0196,-2.0263,-2.0287,-2.0324,-2.0373,-2.0375,-2.0421,-2.0443,-2.0492,-2.0508,-2.0578,-2.0591,-2.0604,-2.0607,-2.0604,-2.0602,-2.0624,-2.0619,-2.0612,-2.0611,-2.0611,-2.061,0,-2.0057,-2.0079,-2.0155,-2.0202,-2.0215,-2.0263,-2.0304,-2.0346,-2.0366,-2.0428,-2.0443,-2.0475,-2.0534,-2.0557,-2.0628,-2.0638,-2.072,-2.0718,-2.0704,-2.0706,-2.075,-2.0746,-2.0888,-2.0908,-2.0794,-2.0795,-2.0796,0,-2.0115,-2.0161,-2.0213,-2.0245,-2.0271,-2.0323,-2.0357,-2.0375,-2.041,-2.0465,-2.0501,-2.0558,-2.0606,-2.0699,-2.0729,-2.0784,-2.0785,-2.0831,-2.0793,-2.0789,-2.0787,-2.0784,-2.0789,-2.0838,-2.0839,-2.084,-2.0841,0,-2.0217,-2.0226,-2.0274,-2.0327,-2.0367,-2.041,-2.0451,-2.0478,-2.0502,-2.0542,-2.0601,-2.0638,-2.071,-2.0768,-2.0825,-2.0852,-2.0851,-2.0852,-2.0866,-2.0864,-2.0854,-2.0861,-2.0724,-2.0849,-2.0848,-2.0848,-2.0847,-2.0847,-2.0287,-2.0329,-2.0371,-2.0426,-2.0458,-2.0497,-2.0539,-2.0565,-2.0614,-2.0675,-2.0682,-2.0746,-2.079,-2.0866,-2.0895,-2.0946,-2.0934,-2.0953,-2.0958,-2.0963,-2.0966,-2.0845,-2.0956,-2.0956,-2.0956,-2.0955,-2.0955,0,-2.039,-2.0417,-2.0467,-2.0525,-2.0568,-2.0562,-2.0608,-2.0644,-2.07,-2.0741,-2.0787,-2.0856,-2.0912,-2.0947,-2.1004,-2.1038,-2.1039,-2.1052,-2.1051,-2.1057,-2.0973,-2.0956,-2.105,-2.105,-2.105,-2.105,-2.105,-2.105,-2.0449,-2.0518,-2.0532,-2.0619,-2.0646,-2.0708,-2.0734,-2.0771,-2.0803,-2.0879,-2.0926,-2.0948,-2.0987,-2.1047,-2.1098,-2.1107,-2.1129,-2.1143,-2.1151,-2.1072,-2.1063,-2.1053,-2.1037,-2.1147,-2.1147,-2.1231,-2.1231,-2.1232]}]]